,,PressureMeas_1m,,PRMeasQMR101_1,,RHStat155_1m_1,,SRMeasQMS101R_1m,,TAStat155_1m_1,,GenWind_1,,GenWind_1,
2019-02-20, 00:00:06,VALID,921.281,VALID,0.0,VALID,98.426,VALID,-0.017,VALID,20.383,INVALID,360.0,VALID,0.0,
2019-02-20, 00:01:06,VALID,921.3,VALID,0.0,VALID,98.406,VALID,-0.026,VALID,20.388,VALID,45.0,VALID,0.0,
2019-02-20, 00:02:06,VALID,921.283,VALID,0.0,VALID,98.366,VALID,-0.009,VALID,20.395,INVALID,360.0,VALID,0.0,
2019-02-20, 00:03:06,VALID,921.271,VALID,0.0,VALID,98.33,VALID,-0.01,VALID,20.402,INVALID,360.0,VALID,0.0,
2019-02-20, 00:04:06,VALID,921.228,VALID,0.0,VALID,98.244,VALID,-0.001,VALID,20.391,VALID,45.0,VALID,0.0,
2019-02-20, 00:05:06,VALID,921.186,VALID,0.0,VALID,98.188,VALID,-0.006,VALID,20.412,INVALID,360.0,VALID,0.0,
2019-02-20, 00:06:06,VALID,921.152,VALID,0.0,VALID,98.06,VALID,-0.009,VALID,20.412,VALID,45.0,VALID,0.0,
2019-02-20, 00:07:06,VALID,921.115,VALID,0.0,VALID,97.949,VALID,0.012,VALID,20.425,VALID,45.0,VALID,0.0,
2019-02-20, 00:08:06,VALID,921.089,VALID,0.0,VALID,97.869,VALID,-0.012,VALID,20.418,INVALID,360.0,VALID,0.0,
2019-02-20, 00:09:06,VALID,921.053,VALID,0.0,VALID,97.841,VALID,-0.01,VALID,20.412,INVALID,360.0,VALID,0.0,
2019-02-20, 00:10:06,VALID,921.041,VALID,0.0,VALID,97.771,VALID,-0.014,VALID,20.403,INVALID,360.0,VALID,0.0,
2019-02-20, 00:11:06,VALID,921.026,VALID,0.0,VALID,97.75,VALID,-0.002,VALID,20.406,INVALID,360.0,VALID,0.0,
2019-02-20, 00:12:06,VALID,921.018,VALID,0.0,VALID,97.612,VALID,0.007,VALID,20.393,INVALID,360.0,VALID,0.0,
2019-02-20, 00:13:06,VALID,920.977,VALID,0.0,VALID,97.368,VALID,-0.002,VALID,20.392,INVALID,360.0,VALID,0.0,
2019-02-20, 00:14:06,VALID,920.973,VALID,0.0,VALID,97.096,VALID,-0.028,VALID,20.415,INVALID,360.0,VALID,0.0,
2019-02-20, 00:15:06,VALID,920.963,VALID,0.0,VALID,96.909,VALID,-0.023,VALID,20.445,INVALID,360.0,VALID,0.0,
2019-02-20, 00:16:06,VALID,920.94,VALID,0.0,VALID,96.67,VALID,-0.016,VALID,20.464,INVALID,360.0,VALID,0.0,
2019-02-20, 00:17:06,VALID,920.943,VALID,0.0,VALID,96.589,VALID,-0.015,VALID,20.475,INVALID,360.0,VALID,0.0,
2019-02-20, 00:18:06,VALID,920.922,VALID,0.0,VALID,96.545,VALID,-0.019,VALID,20.47,INVALID,360.0,VALID,0.0,
2019-02-20, 00:19:06,VALID,920.912,VALID,0.0,VALID,96.5,VALID,-0.013,VALID,20.453,INVALID,360.0,VALID,0.0,
2019-02-20, 00:20:06,VALID,920.91,VALID,0.0,VALID,96.276,VALID,-0.023,VALID,20.441,INVALID,360.0,VALID,0.0,
2019-02-20, 00:21:06,VALID,920.913,VALID,0.0,VALID,96.325,VALID,-0.026,VALID,20.478,INVALID,360.0,VALID,0.0,
2019-02-20, 00:22:06,VALID,920.9,VALID,0.0,VALID,96.334,VALID,-0.019,VALID,20.487,INVALID,360.0,VALID,0.0,
2019-02-20, 00:23:06,VALID,920.894,VALID,0.0,VALID,96.239,VALID,-0.011,VALID,20.487,INVALID,360.0,VALID,0.0,
2019-02-20, 00:24:06,VALID,920.893,VALID,0.0,VALID,96.145,VALID,-0.015,VALID,20.496,INVALID,360.0,VALID,0.0,
2019-02-20, 00:25:06,VALID,920.876,VALID,0.0,VALID,96.058,VALID,-0.006,VALID,20.5,VALID,46.0,VALID,0.0,
2019-02-20, 00:26:06,VALID,920.862,VALID,0.0,VALID,95.948,VALID,-0.008,VALID,20.501,VALID,46.0,VALID,0.0,
2019-02-20, 00:27:06,VALID,920.861,VALID,0.0,VALID,95.912,VALID,-0.018,VALID,20.515,INVALID,360.0,VALID,0.0,
2019-02-20, 00:28:06,VALID,920.843,VALID,0.0,VALID,96.014,VALID,0.005,VALID,20.516,INVALID,360.0,VALID,0.0,
2019-02-20, 00:29:06,VALID,920.846,VALID,0.0,VALID,96.091,VALID,-0.01,VALID,20.502,VALID,45.0,VALID,0.0,
2019-02-20, 00:30:06,VALID,920.829,VALID,0.0,VALID,96.203,VALID,-0.019,VALID,20.483,VALID,45.0,VALID,0.0,
2019-02-20, 00:31:06,VALID,920.835,VALID,0.0,VALID,96.508,VALID,-0.02,VALID,20.451,INVALID,360.0,VALID,0.0,
2019-02-20, 00:32:06,VALID,920.834,VALID,0.0,VALID,96.669,VALID,-0.007,VALID,20.397,INVALID,360.0,VALID,0.0,
2019-02-20, 00:33:06,VALID,920.84,VALID,0.0,VALID,96.949,VALID,0.002,VALID,20.371,INVALID,360.0,VALID,0.0,
2019-02-20, 00:34:06,VALID,920.827,VALID,0.0,VALID,97.167,VALID,-0.001,VALID,20.343,INVALID,360.0,VALID,0.0,
2019-02-20, 00:35:06,VALID,920.811,VALID,0.0,VALID,97.331,VALID,-0.013,VALID,20.329,INVALID,360.0,VALID,0.0,
2019-02-20, 00:36:06,VALID,920.815,VALID,0.0,VALID,97.441,VALID,-0.005,VALID,20.294,INVALID,360.0,VALID,0.0,
2019-02-20, 00:37:06,VALID,920.81,VALID,0.0,VALID,97.494,VALID,-0.024,VALID,20.26,INVALID,360.0,VALID,0.0,
2019-02-20, 00:38:06,VALID,920.808,VALID,0.0,VALID,97.406,VALID,-0.027,VALID,20.223,INVALID,360.0,VALID,0.0,
2019-02-20, 00:39:06,VALID,920.82,VALID,0.0,VALID,97.284,VALID,-0.009,VALID,20.221,INVALID,360.0,VALID,0.0,
2019-02-20, 00:40:06,VALID,920.818,VALID,0.0,VALID,97.091,VALID,-0.005,VALID,20.235,INVALID,360.0,VALID,0.0,
2019-02-20, 00:41:06,VALID,920.804,VALID,0.0,VALID,96.909,VALID,-0.001,VALID,20.251,INVALID,360.0,VALID,0.0,
2019-02-20, 00:42:06,VALID,920.802,VALID,0.0,VALID,96.793,VALID,-0.003,VALID,20.263,INVALID,360.0,VALID,0.0,
2019-02-20, 00:43:06,VALID,920.804,VALID,0.0,VALID,96.798,VALID,-0.011,VALID,20.286,INVALID,360.0,VALID,0.0,
2019-02-20, 00:44:06,VALID,920.832,VALID,0.0,VALID,96.96,VALID,-0.012,VALID,20.293,INVALID,360.0,VALID,0.0,
2019-02-20, 00:45:06,VALID,920.818,VALID,0.0,VALID,97.044,VALID,-0.011,VALID,20.28,INVALID,360.0,VALID,0.0,
2019-02-20, 00:46:06,VALID,920.812,VALID,0.0,VALID,97.063,VALID,-0.013,VALID,20.271,INVALID,360.0,VALID,0.0,
2019-02-20, 00:47:06,VALID,920.806,VALID,0.0,VALID,97.059,VALID,-0.018,VALID,20.273,INVALID,360.0,VALID,0.0,
2019-02-20, 00:48:06,VALID,920.777,VALID,0.0,VALID,97.041,VALID,-0.012,VALID,20.275,INVALID,360.0,VALID,0.0,
2019-02-20, 00:49:06,VALID,920.775,VALID,0.0,VALID,97.056,VALID,-0.009,VALID,20.281,INVALID,360.0,VALID,0.0,
2019-02-20, 00:50:06,VALID,920.758,VALID,0.0,VALID,97.053,VALID,-0.01,VALID,20.286,INVALID,360.0,VALID,0.0,
2019-02-20, 00:51:06,VALID,920.759,VALID,0.0,VALID,97.109,VALID,-0.023,VALID,20.298,VALID,45.0,VALID,0.0,
2019-02-20, 00:52:06,VALID,920.729,VALID,0.0,VALID,97.299,VALID,-0.023,VALID,20.312,VALID,45.0,VALID,0.0,
2019-02-20, 00:53:06,VALID,920.719,VALID,0.0,VALID,97.541,VALID,-0.034,VALID,20.322,INVALID,360.0,VALID,0.0,
2019-02-20, 00:54:06,VALID,920.703,VALID,0.0,VALID,97.682,VALID,-0.029,VALID,20.319,VALID,45.0,VALID,0.0,
2019-02-20, 00:55:06,VALID,920.708,VALID,0.0,VALID,97.738,VALID,-0.005,VALID,20.323,VALID,45.0,VALID,0.0,
2019-02-20, 00:56:06,VALID,920.712,VALID,0.0,VALID,97.823,VALID,-0.0,VALID,20.32,INVALID,360.0,VALID,0.0,
2019-02-20, 00:57:06,VALID,920.727,VALID,0.0,VALID,97.893,VALID,-0.007,VALID,20.321,INVALID,360.0,VALID,0.0,
2019-02-20, 00:58:06,VALID,920.763,VALID,0.0,VALID,97.926,VALID,0.01,VALID,20.314,INVALID,360.0,VALID,0.0,
2019-02-20, 00:59:06,VALID,920.762,VALID,0.0,VALID,97.986,VALID,0.021,VALID,20.318,VALID,45.0,VALID,0.0,
2019-02-20, 01:00:06,VALID,920.801,VALID,0.0,VALID,97.988,VALID,0.002,VALID,20.319,VALID,45.0,VALID,0.0,
2019-02-20, 01:01:06,VALID,920.822,VALID,0.0,VALID,98.003,VALID,0.019,VALID,20.319,VALID,46.0,VALID,0.0,
2019-02-20, 01:02:06,VALID,920.829,VALID,0.0,VALID,97.993,VALID,0.006,VALID,20.304,VALID,45.0,VALID,0.0,
2019-02-20, 01:03:06,VALID,920.853,VALID,0.0,VALID,97.996,VALID,0.001,VALID,20.294,VALID,44.0,VALID,0.0,
2019-02-20, 01:04:06,VALID,920.835,VALID,0.0,VALID,97.957,VALID,-0.001,VALID,20.281,INVALID,360.0,VALID,0.0,
2019-02-20, 01:05:06,VALID,920.832,VALID,0.0,VALID,97.877,VALID,0.004,VALID,20.269,INVALID,360.0,VALID,0.0,
2019-02-20, 01:06:06,VALID,920.827,VALID,0.0,VALID,97.743,VALID,0.01,VALID,20.269,INVALID,360.0,VALID,0.0,
2019-02-20, 01:07:06,VALID,920.805,VALID,0.0,VALID,97.526,VALID,0.024,VALID,20.291,INVALID,360.0,VALID,0.0,
2019-02-20, 01:08:06,VALID,920.804,VALID,0.0,VALID,97.272,VALID,0.017,VALID,20.319,INVALID,360.0,VALID,0.0,
2019-02-20, 01:09:06,VALID,920.799,VALID,0.0,VALID,96.907,VALID,-0.003,VALID,20.353,INVALID,360.0,VALID,0.0,
2019-02-20, 01:10:06,VALID,920.776,VALID,0.0,VALID,96.575,VALID,0.002,VALID,20.401,INVALID,360.0,VALID,0.0,
2019-02-20, 01:11:06,VALID,920.747,VALID,0.0,VALID,96.382,VALID,-0.005,VALID,20.421,INVALID,360.0,VALID,0.0,
2019-02-20, 01:12:06,VALID,920.706,VALID,0.0,VALID,96.271,VALID,0.005,VALID,20.418,INVALID,360.0,VALID,0.0,
2019-02-20, 01:13:06,VALID,920.651,VALID,0.0,VALID,96.237,VALID,0.007,VALID,20.419,INVALID,360.0,VALID,0.0,
2019-02-20, 01:14:06,VALID,920.593,VALID,0.0,VALID,96.253,VALID,0.009,VALID,20.418,INVALID,360.0,VALID,0.0,
2019-02-20, 01:15:06,VALID,920.523,VALID,0.0,VALID,96.332,VALID,0.005,VALID,20.416,INVALID,360.0,VALID,0.0,
2019-02-20, 01:16:06,VALID,920.459,VALID,0.0,VALID,96.4,VALID,0.023,VALID,20.404,INVALID,360.0,VALID,0.0,
2019-02-20, 01:17:06,VALID,920.394,VALID,0.0,VALID,96.434,VALID,0.012,VALID,20.397,INVALID,360.0,VALID,0.0,
2019-02-20, 01:18:06,VALID,920.33,VALID,0.0,VALID,96.492,VALID,0.002,VALID,20.392,INVALID,360.0,VALID,0.0,
2019-02-20, 01:19:06,VALID,920.294,VALID,0.0,VALID,96.457,VALID,0.014,VALID,20.381,INVALID,360.0,VALID,0.0,
2019-02-20, 01:20:06,VALID,920.251,VALID,0.0,VALID,96.441,VALID,0.01,VALID,20.379,INVALID,360.0,VALID,0.0,
2019-02-20, 01:21:06,VALID,920.215,VALID,0.0,VALID,96.719,VALID,0.007,VALID,20.432,INVALID,360.0,VALID,0.0,
2019-02-20, 01:22:06,VALID,920.203,VALID,0.0,VALID,96.845,VALID,-0.003,VALID,20.418,INVALID,360.0,VALID,0.0,
2019-02-20, 01:23:06,VALID,920.172,VALID,0.0,VALID,96.76,VALID,-0.015,VALID,20.377,INVALID,360.0,VALID,0.0,
2019-02-20, 01:24:06,VALID,920.153,VALID,0.0,VALID,96.719,VALID,0.003,VALID,20.356,INVALID,360.0,VALID,0.0,
2019-02-20, 01:25:06,VALID,920.136,VALID,0.0,VALID,96.565,VALID,-0.012,VALID,20.333,INVALID,360.0,VALID,0.0,
2019-02-20, 01:26:06,VALID,920.112,VALID,0.0,VALID,96.329,VALID,-0.002,VALID,20.32,INVALID,360.0,VALID,0.0,
2019-02-20, 01:27:06,VALID,920.094,VALID,0.0,VALID,96.176,VALID,-0.009,VALID,20.322,INVALID,360.0,VALID,0.0,
2019-02-20, 01:28:06,VALID,920.065,VALID,0.0,VALID,96.088,VALID,0.011,VALID,20.314,INVALID,360.0,VALID,0.0,
2019-02-20, 01:29:06,VALID,920.054,VALID,0.0,VALID,95.968,VALID,0.002,VALID,20.331,INVALID,360.0,VALID,0.0,
2019-02-20, 01:30:06,VALID,920.052,VALID,0.0,VALID,96.086,VALID,-0.002,VALID,20.352,INVALID,360.0,VALID,0.0,
2019-02-20, 01:31:06,VALID,920.025,VALID,0.0,VALID,96.328,VALID,-0.001,VALID,20.347,INVALID,360.0,VALID,0.0,
2019-02-20, 01:32:06,VALID,920.009,VALID,0.0,VALID,96.402,VALID,-0.005,VALID,20.344,INVALID,360.0,VALID,0.0,
2019-02-20, 01:33:06,VALID,920.002,VALID,0.0,VALID,96.472,VALID,-0.011,VALID,20.341,INVALID,360.0,VALID,0.0,
2019-02-20, 01:34:06,VALID,919.97,VALID,0.0,VALID,96.536,VALID,-0.005,VALID,20.324,INVALID,360.0,VALID,0.0,
2019-02-20, 01:35:06,VALID,919.956,VALID,0.0,VALID,96.643,VALID,0.001,VALID,20.317,INVALID,360.0,VALID,0.0,
2019-02-20, 01:36:06,VALID,919.937,VALID,0.0,VALID,96.677,VALID,0.022,VALID,20.301,INVALID,360.0,VALID,0.0,
2019-02-20, 01:37:06,VALID,919.904,VALID,0.0,VALID,96.746,VALID,-0.004,VALID,20.281,INVALID,360.0,VALID,0.0,
2019-02-20, 01:38:06,VALID,919.898,VALID,0.0,VALID,96.818,VALID,0.005,VALID,20.272,INVALID,360.0,VALID,0.0,
2019-02-20, 01:39:06,VALID,919.881,VALID,0.0,VALID,97.042,VALID,0.001,VALID,20.292,INVALID,360.0,VALID,0.0,
2019-02-20, 01:40:06,VALID,919.865,VALID,0.0,VALID,97.32,VALID,0.02,VALID,20.321,INVALID,360.0,VALID,0.0,
2019-02-20, 01:41:06,VALID,919.875,VALID,0.0,VALID,97.427,VALID,0.012,VALID,20.321,INVALID,360.0,VALID,0.0,
2019-02-20, 01:42:06,VALID,919.854,VALID,0.0,VALID,97.419,VALID,0.004,VALID,20.284,INVALID,360.0,VALID,0.0,
2019-02-20, 01:43:06,VALID,919.873,VALID,0.0,VALID,97.218,VALID,-0.012,VALID,20.218,INVALID,360.0,VALID,0.0,
2019-02-20, 01:44:06,VALID,919.866,VALID,0.0,VALID,97.091,VALID,-0.019,VALID,20.211,INVALID,360.0,VALID,0.0,
2019-02-20, 01:45:06,VALID,919.877,VALID,0.0,VALID,97.015,VALID,-0.022,VALID,20.219,INVALID,360.0,VALID,0.0,
2019-02-20, 01:46:06,VALID,919.874,VALID,0.0,VALID,97.237,VALID,-0.018,VALID,20.271,INVALID,360.0,VALID,0.0,
2019-02-20, 01:47:06,VALID,919.885,VALID,0.0,VALID,97.118,VALID,-0.025,VALID,20.249,INVALID,360.0,VALID,0.0,
2019-02-20, 01:48:06,VALID,919.889,VALID,0.0,VALID,97.083,VALID,-0.015,VALID,20.252,INVALID,360.0,VALID,0.0,
2019-02-20, 01:49:06,VALID,919.91,VALID,0.0,VALID,97.123,VALID,-0.031,VALID,20.261,INVALID,360.0,VALID,0.0,
2019-02-20, 01:50:06,VALID,919.922,VALID,0.0,VALID,97.149,VALID,-0.031,VALID,20.255,INVALID,360.0,VALID,0.0,
2019-02-20, 01:51:06,VALID,919.923,VALID,0.0,VALID,96.993,VALID,-0.032,VALID,20.208,INVALID,360.0,VALID,0.0,
2019-02-20, 01:52:06,VALID,919.937,VALID,0.0,VALID,97.037,VALID,-0.02,VALID,20.191,INVALID,360.0,VALID,0.0,
2019-02-20, 01:53:06,VALID,919.935,VALID,0.0,VALID,97.027,VALID,-0.018,VALID,20.147,INVALID,360.0,VALID,0.0,
2019-02-20, 01:54:06,VALID,919.949,VALID,0.0,VALID,97.105,VALID,-0.026,VALID,20.124,INVALID,360.0,VALID,0.0,
2019-02-20, 01:55:06,VALID,919.928,VALID,0.0,VALID,97.227,VALID,-0.031,VALID,20.114,INVALID,360.0,VALID,0.0,
2019-02-20, 01:56:06,VALID,919.932,VALID,0.0,VALID,97.353,VALID,-0.023,VALID,20.119,INVALID,360.0,VALID,0.0,
2019-02-20, 01:57:06,VALID,919.936,VALID,0.0,VALID,97.428,VALID,-0.034,VALID,20.128,INVALID,360.0,VALID,0.0,
2019-02-20, 01:58:06,VALID,919.951,VALID,0.0,VALID,97.442,VALID,-0.002,VALID,20.132,INVALID,360.0,VALID,0.0,
2019-02-20, 01:59:06,VALID,919.942,VALID,0.0,VALID,97.458,VALID,-0.012,VALID,20.135,INVALID,360.0,VALID,0.0,
2019-02-20, 02:00:06,VALID,919.948,VALID,0.0,VALID,97.489,VALID,-0.006,VALID,20.13,INVALID,360.0,VALID,0.0,
2019-02-20, 02:01:06,VALID,919.937,VALID,0.0,VALID,97.539,VALID,0.025,VALID,20.129,INVALID,360.0,VALID,0.0,
2019-02-20, 02:02:06,VALID,919.931,VALID,0.0,VALID,97.611,VALID,0.002,VALID,20.137,VALID,45.0,VALID,0.0,
2019-02-20, 02:03:06,VALID,919.924,VALID,0.0,VALID,97.792,VALID,0.005,VALID,20.149,VALID,45.0,VALID,0.0,
2019-02-20, 02:04:06,VALID,919.895,VALID,0.0,VALID,97.916,VALID,-0.004,VALID,20.151,VALID,45.0,VALID,0.0,
2019-02-20, 02:05:06,VALID,919.89,VALID,0.0,VALID,97.979,VALID,0.004,VALID,20.129,VALID,45.0,VALID,0.0,
2019-02-20, 02:06:06,VALID,919.862,VALID,0.0,VALID,98.034,VALID,0.002,VALID,20.119,INVALID,360.0,VALID,0.0,
2019-02-20, 02:07:06,VALID,919.825,VALID,0.0,VALID,98.065,VALID,0.002,VALID,20.109,INVALID,360.0,VALID,0.0,
2019-02-20, 02:08:06,VALID,919.814,VALID,0.0,VALID,98.089,VALID,0.021,VALID,20.11,VALID,45.0,VALID,0.0,
2019-02-20, 02:09:06,VALID,919.769,VALID,0.0,VALID,98.147,VALID,0.015,VALID,20.127,VALID,46.0,VALID,0.0,
2019-02-20, 02:10:06,VALID,919.743,VALID,0.0,VALID,98.185,VALID,0.019,VALID,20.152,INVALID,360.0,VALID,0.0,
2019-02-20, 02:11:06,VALID,919.708,VALID,0.0,VALID,98.227,VALID,0.011,VALID,20.156,VALID,45.0,VALID,0.0,
2019-02-20, 02:12:06,VALID,919.685,VALID,0.0,VALID,98.224,VALID,0.005,VALID,20.143,INVALID,360.0,VALID,0.0,
2019-02-20, 02:13:06,VALID,919.652,VALID,0.0,VALID,98.282,VALID,-0.018,VALID,20.15,INVALID,360.0,VALID,0.0,
2019-02-20, 02:14:06,VALID,919.636,VALID,0.0,VALID,98.308,VALID,-0.016,VALID,20.137,VALID,46.0,VALID,0.0,
2019-02-20, 02:15:06,VALID,919.64,VALID,0.0,VALID,98.293,VALID,-0.017,VALID,20.113,INVALID,360.0,VALID,0.0,
2019-02-20, 02:16:06,VALID,919.644,VALID,0.0,VALID,98.316,VALID,-0.041,VALID,20.091,VALID,45.0,VALID,0.0,
2019-02-20, 02:17:06,VALID,919.64,VALID,0.0,VALID,98.32,VALID,-0.037,VALID,20.077,INVALID,360.0,VALID,0.0,
2019-02-20, 02:18:06,VALID,919.631,VALID,0.0,VALID,98.337,VALID,-0.045,VALID,20.061,INVALID,360.0,VALID,0.0,
2019-02-20, 02:19:06,VALID,919.652,VALID,0.0,VALID,98.32,VALID,-0.046,VALID,20.07,INVALID,360.0,VALID,0.0,
2019-02-20, 02:20:06,VALID,919.633,VALID,0.0,VALID,98.297,VALID,-0.04,VALID,20.098,INVALID,360.0,VALID,0.0,
2019-02-20, 02:21:06,VALID,919.659,VALID,0.0,VALID,98.272,VALID,-0.041,VALID,20.105,INVALID,360.0,VALID,0.0,
2019-02-20, 02:22:06,VALID,919.639,VALID,0.0,VALID,98.195,VALID,-0.043,VALID,20.088,INVALID,360.0,VALID,0.0,
2019-02-20, 02:23:06,VALID,919.657,VALID,0.0,VALID,98.186,VALID,-0.032,VALID,20.089,INVALID,360.0,VALID,0.0,
2019-02-20, 02:24:06,VALID,919.664,VALID,0.0,VALID,98.102,VALID,-0.022,VALID,20.062,INVALID,360.0,VALID,0.0,
2019-02-20, 02:25:06,VALID,919.649,VALID,0.0,VALID,98.044,VALID,-0.039,VALID,20.054,INVALID,360.0,VALID,0.0,
2019-02-20, 02:26:06,VALID,919.627,VALID,0.0,VALID,98.041,VALID,-0.046,VALID,20.073,INVALID,360.0,VALID,0.0,
2019-02-20, 02:27:06,VALID,919.619,VALID,0.0,VALID,98.033,VALID,-0.029,VALID,20.084,INVALID,360.0,VALID,0.0,
2019-02-20, 02:28:06,VALID,919.623,VALID,0.0,VALID,97.967,VALID,-0.006,VALID,20.065,INVALID,360.0,VALID,0.0,
2019-02-20, 02:29:06,VALID,919.604,VALID,0.0,VALID,97.92,VALID,0.022,VALID,20.063,INVALID,360.0,VALID,0.0,
2019-02-20, 02:30:06,VALID,919.613,VALID,0.0,VALID,97.887,VALID,0.005,VALID,20.052,INVALID,360.0,VALID,0.0,
2019-02-20, 02:31:06,VALID,919.596,VALID,0.0,VALID,97.852,VALID,0.014,VALID,20.041,INVALID,360.0,VALID,0.0,
2019-02-20, 02:32:06,VALID,919.569,VALID,0.0,VALID,97.839,VALID,0.014,VALID,20.035,INVALID,360.0,VALID,0.0,
2019-02-20, 02:33:06,VALID,919.526,VALID,0.0,VALID,97.815,VALID,-0.007,VALID,20.037,INVALID,360.0,VALID,0.0,
2019-02-20, 02:34:06,VALID,919.515,VALID,0.0,VALID,97.834,VALID,-0.007,VALID,20.038,VALID,45.0,VALID,0.0,
2019-02-20, 02:35:06,VALID,919.469,VALID,0.0,VALID,97.909,VALID,-0.0,VALID,20.069,INVALID,360.0,VALID,0.0,
2019-02-20, 02:36:06,VALID,919.46,VALID,0.0,VALID,97.94,VALID,0.016,VALID,20.093,INVALID,360.0,VALID,0.0,
2019-02-20, 02:37:06,VALID,919.434,VALID,0.0,VALID,97.951,VALID,-0.014,VALID,20.115,INVALID,360.0,VALID,0.0,
2019-02-20, 02:38:06,VALID,919.41,VALID,0.0,VALID,97.991,VALID,0.015,VALID,20.116,INVALID,360.0,VALID,0.0,
2019-02-20, 02:39:06,VALID,919.398,VALID,0.0,VALID,98.017,VALID,0.006,VALID,20.11,INVALID,360.0,VALID,0.0,
2019-02-20, 02:40:06,VALID,919.398,VALID,0.0,VALID,98.055,VALID,0.006,VALID,20.09,INVALID,360.0,VALID,0.0,
2019-02-20, 02:41:06,VALID,919.409,VALID,0.0,VALID,98.137,VALID,0.009,VALID,20.083,INVALID,360.0,VALID,0.0,
2019-02-20, 02:42:06,VALID,919.421,VALID,0.0,VALID,98.161,VALID,-0.006,VALID,20.072,INVALID,360.0,VALID,0.0,
2019-02-20, 02:43:06,VALID,919.428,VALID,0.0,VALID,98.217,VALID,0.01,VALID,20.058,INVALID,360.0,VALID,0.0,
2019-02-20, 02:44:06,VALID,919.436,VALID,0.0,VALID,98.271,VALID,0.024,VALID,20.045,VALID,45.0,VALID,0.0,
2019-02-20, 02:45:06,VALID,919.427,VALID,0.0,VALID,98.286,VALID,0.005,VALID,20.027,VALID,45.0,VALID,0.0,
2019-02-20, 02:46:06,VALID,919.442,VALID,0.0,VALID,98.343,VALID,0.002,VALID,20.034,INVALID,360.0,VALID,0.0,
2019-02-20, 02:47:06,VALID,919.435,VALID,0.0,VALID,98.37,VALID,-0.003,VALID,20.043,VALID,45.0,VALID,0.0,
2019-02-20, 02:48:06,VALID,919.439,VALID,0.0,VALID,98.378,VALID,0.005,VALID,20.058,INVALID,360.0,VALID,0.0,
2019-02-20, 02:49:06,VALID,919.429,VALID,0.0,VALID,98.357,VALID,0.008,VALID,20.053,INVALID,360.0,VALID,0.0,
2019-02-20, 02:50:06,VALID,919.393,VALID,0.0,VALID,98.365,VALID,0.014,VALID,20.063,INVALID,360.0,VALID,0.0,
2019-02-20, 02:51:06,VALID,919.386,VALID,0.0,VALID,98.367,VALID,0.009,VALID,20.086,VALID,45.0,VALID,0.0,
2019-02-20, 02:52:06,VALID,919.395,VALID,0.0,VALID,98.318,VALID,0.02,VALID,20.084,INVALID,360.0,VALID,0.0,
2019-02-20, 02:53:06,VALID,919.368,VALID,0.0,VALID,98.237,VALID,-0.002,VALID,20.076,INVALID,360.0,VALID,0.0,
2019-02-20, 02:54:06,VALID,919.369,VALID,0.0,VALID,98.154,VALID,0.0,VALID,20.091,INVALID,360.0,VALID,0.0,
2019-02-20, 02:55:06,VALID,919.368,VALID,0.0,VALID,98.079,VALID,0.012,VALID,20.128,INVALID,360.0,VALID,0.0,
2019-02-20, 02:56:06,VALID,919.347,VALID,0.0,VALID,97.957,VALID,0.014,VALID,20.147,INVALID,360.0,VALID,0.0,
2019-02-20, 02:57:06,VALID,919.336,VALID,0.0,VALID,97.803,VALID,0.02,VALID,20.153,INVALID,360.0,VALID,0.0,
2019-02-20, 02:58:06,VALID,919.315,VALID,0.0,VALID,97.634,VALID,-0.03,VALID,20.158,INVALID,360.0,VALID,0.0,
2019-02-20, 02:59:06,VALID,919.292,VALID,0.0,VALID,97.541,VALID,-0.031,VALID,20.182,INVALID,360.0,VALID,0.0,
2019-02-20, 03:00:06,VALID,919.294,VALID,0.0,VALID,97.437,VALID,-0.035,VALID,20.188,INVALID,360.0,VALID,0.0,
2019-02-20, 03:01:06,VALID,919.256,VALID,0.0,VALID,97.305,VALID,-0.029,VALID,20.169,INVALID,360.0,VALID,0.0,
2019-02-20, 03:02:06,VALID,919.239,VALID,0.0,VALID,97.28,VALID,-0.03,VALID,20.148,INVALID,360.0,VALID,0.0,
2019-02-20, 03:03:06,VALID,919.231,VALID,0.0,VALID,97.295,VALID,-0.03,VALID,20.135,INVALID,360.0,VALID,0.0,
2019-02-20, 03:04:06,VALID,919.21,VALID,0.0,VALID,97.269,VALID,-0.016,VALID,20.126,INVALID,360.0,VALID,0.0,
2019-02-20, 03:05:06,VALID,919.189,VALID,0.0,VALID,97.23,VALID,-0.012,VALID,20.114,INVALID,360.0,VALID,0.0,
2019-02-20, 03:06:06,VALID,919.18,VALID,0.0,VALID,97.145,VALID,-0.015,VALID,20.113,INVALID,360.0,VALID,0.0,
2019-02-20, 03:07:06,VALID,919.176,VALID,0.0,VALID,97.046,VALID,-0.036,VALID,20.117,INVALID,360.0,VALID,0.0,
2019-02-20, 03:08:06,VALID,919.137,VALID,0.0,VALID,97.027,VALID,-0.028,VALID,20.117,INVALID,360.0,VALID,0.0,
2019-02-20, 03:09:06,VALID,919.127,VALID,0.0,VALID,97.029,VALID,-0.021,VALID,20.119,INVALID,360.0,VALID,0.0,
2019-02-20, 03:10:06,VALID,919.101,VALID,0.0,VALID,97.028,VALID,-0.043,VALID,20.122,INVALID,360.0,VALID,0.0,
2019-02-20, 03:11:06,VALID,919.089,VALID,0.0,VALID,97.011,VALID,-0.04,VALID,20.113,INVALID,360.0,VALID,0.0,
2019-02-20, 03:12:06,VALID,919.086,VALID,0.0,VALID,97.045,VALID,-0.027,VALID,20.113,INVALID,360.0,VALID,0.0,
2019-02-20, 03:13:06,VALID,919.086,VALID,0.0,VALID,97.182,VALID,-0.014,VALID,20.114,INVALID,360.0,VALID,0.0,
2019-02-20, 03:14:06,VALID,919.104,VALID,0.0,VALID,97.136,VALID,-0.01,VALID,20.076,INVALID,360.0,VALID,0.0,
2019-02-20, 03:15:06,VALID,919.102,VALID,0.0,VALID,97.258,VALID,0.004,VALID,20.062,INVALID,360.0,VALID,0.0,
2019-02-20, 03:16:06,VALID,919.135,VALID,0.0,VALID,97.331,VALID,-0.011,VALID,20.055,INVALID,360.0,VALID,0.0,
2019-02-20, 03:17:06,VALID,919.156,VALID,0.0,VALID,97.367,VALID,-0.016,VALID,20.059,INVALID,360.0,VALID,0.0,
2019-02-20, 03:18:06,VALID,919.18,VALID,0.0,VALID,97.394,VALID,-0.001,VALID,20.043,INVALID,360.0,VALID,0.0,
2019-02-20, 03:19:06,VALID,919.219,VALID,0.0,VALID,97.443,VALID,-0.008,VALID,20.033,INVALID,360.0,VALID,0.0,
2019-02-20, 03:20:06,VALID,919.262,VALID,0.0,VALID,97.432,VALID,0.012,VALID,20.027,INVALID,360.0,VALID,0.0,
2019-02-20, 03:21:06,VALID,919.313,VALID,0.0,VALID,97.401,VALID,0.009,VALID,20.024,INVALID,360.0,VALID,0.0,
2019-02-20, 03:22:06,VALID,919.365,VALID,0.0,VALID,97.354,VALID,-0.002,VALID,20.019,INVALID,360.0,VALID,0.0,
2019-02-20, 03:23:06,VALID,919.403,VALID,0.0,VALID,97.372,VALID,-0.008,VALID,20.026,INVALID,360.0,VALID,0.0,
2019-02-20, 03:24:06,VALID,919.453,VALID,0.0,VALID,97.409,VALID,-0.01,VALID,20.031,INVALID,360.0,VALID,0.0,
2019-02-20, 03:25:06,VALID,919.496,VALID,0.0,VALID,97.474,VALID,-0.008,VALID,20.048,INVALID,360.0,VALID,0.0,
2019-02-20, 03:26:06,VALID,919.516,VALID,0.0,VALID,97.545,VALID,-0.005,VALID,20.029,INVALID,360.0,VALID,0.0,
2019-02-20, 03:27:06,VALID,919.535,VALID,0.0,VALID,97.689,VALID,-0.01,VALID,20.011,INVALID,360.0,VALID,0.0,
2019-02-20, 03:28:06,VALID,919.561,VALID,0.0,VALID,97.875,VALID,-0.014,VALID,20.004,INVALID,360.0,VALID,0.0,
2019-02-20, 03:29:06,VALID,919.558,VALID,0.0,VALID,97.978,VALID,-0.005,VALID,19.99,INVALID,360.0,VALID,0.0,
2019-02-20, 03:30:06,VALID,919.571,VALID,0.0,VALID,98.069,VALID,-0.003,VALID,19.969,INVALID,360.0,VALID,0.0,
2019-02-20, 03:31:06,VALID,919.59,VALID,0.0,VALID,98.15,VALID,0.0,VALID,19.952,INVALID,360.0,VALID,0.0,
2019-02-20, 03:32:06,VALID,919.616,VALID,0.0,VALID,98.222,VALID,0.003,VALID,19.953,INVALID,360.0,VALID,0.0,
2019-02-20, 03:33:06,VALID,919.623,VALID,0.0,VALID,98.29,VALID,-0.009,VALID,19.956,INVALID,360.0,VALID,0.0,
2019-02-20, 03:34:06,VALID,919.646,VALID,0.0,VALID,98.332,VALID,-0.003,VALID,19.962,INVALID,360.0,VALID,0.0,
2019-02-20, 03:35:06,VALID,919.651,VALID,0.0,VALID,98.378,VALID,-0.008,VALID,19.957,INVALID,360.0,VALID,0.0,
2019-02-20, 03:36:06,VALID,919.661,VALID,0.0,VALID,98.383,VALID,-0.002,VALID,19.949,INVALID,360.0,VALID,0.0,
2019-02-20, 03:37:06,VALID,919.668,VALID,0.0,VALID,98.422,VALID,0.006,VALID,19.953,INVALID,360.0,VALID,0.0,
2019-02-20, 03:38:06,VALID,919.661,VALID,0.0,VALID,98.429,VALID,-0.01,VALID,19.939,INVALID,360.0,VALID,0.0,